[[{"header":{"parameterUnit":"m.s-1","parameterCategory":1,"la1":30.2991,"la2":30.254,"lo1":-89.0895,"lo2":-89.0444,"dy":0.0017,"dx":0.0017,"nx":28,"ny":28,"refTime":"2025-07-25T03:00:00:Z","depth":0,"parameterNumber":2,"parameterNumberName":"U-component_of_WINDS"},"data":[0,0,0,0,0,0,0,0,0,0,0,0,0,0,0,0,0,0,0,0,0,0,0,0,0,0,0,0,0,0,0,0,0,0,0,0,0,0,0,0,0,0,0,0,0,0,0,0,0,0,0,0,0,0,0,0,0,0,0.1962,0.1962,0,0.1945,0.1945,0.1945,0.1945,0.1945,0.1945,0.1945,0.1926,0.1926,0.1925,0,0,0,0,0,0,0,0,0,0,0,0,0,0.1991,0.1991,0.1962,0.1962,0.1961,0.1945,0.1945,0.1945,0.1945,0.1945,0.1945,0.1945,0.1927,0.1926,0.1925,0,0,0,0,0,0,0,0,0,0,0,0,0,0.1977,0.199,0.1962,0.1959,0.1959,0.1945,0.1945,0.1945,0.1945,0.1945,0.1945,0.1946,0.1927,0.1926,0.1925,0.1912,0,0,0.1922,0.1921,0,0,0,0,0,0,0,0,0.1978,0.1976,0.196,0.196,0.1959,0.1947,0.1948,0.1933,0.1944,0.195,0.1945,0.1946,0.1933,0.1931,0.1928,0.1911,0.191,0.1921,0.1921,0.192,0.192,0,0,0,0,0,0,0,0.1979,0.1976,0.1955,0.196,0.1959,0.1958,0.1957,0.1946,0.194,0.195,0.195,0.1948,0.1933,0.1929,0.1927,0.191,0.1922,0.1921,0.192,0.192,0.188,0.1879,0,0,0,0,0,0,0.198,0.1977,0.1956,0.1955,0.1969,0.1958,0.1956,0.1951,0.194,0.1939,0.1947,0.1948,0.193,0.1928,0.1926,0.1909,0.192,0.1919,0.1919,0.188,0.188,0.1879,0,0,0,0,0,0,0.1981,0.1978,0.1956,0.1966,0.1963,0.1957,0.1951,0.195,0.1946,0.1938,0.1937,0.1944,0.193,0.1928,0.1915,0.1909,0.1919,0.1918,0.1881,0.188,0.188,0.1876,0,0,0,0,0,0,0.1982,0.1979,0.1974,0.1966,0.1963,0.1946,0.1951,0.195,0.1944,0.1945,0.1935,0.1934,0.193,0.1917,0.1914,0.1907,0.1917,0.1881,0.188,0.188,0.1876,0.1875,0.1874,0,0,0,0,0,0.1983,0.1974,0.1974,0.1971,0.1957,0.1946,0.1944,0.1941,0.1944,0.1939,0.1934,0.1934,0.191,0.1915,0.1912,0.1905,0.1882,0.1881,0.188,0.1877,0.1875,0.1874,0,0,0,0,0,0,0.1981,0.1973,0.1973,0.1961,0.1954,0.1946,0.1939,0.1939,0.1931,0.1931,0.1927,0.1925,0.1912,0.1908,0.1914,0.1891,0.1896,0.1895,0.1895,0.1893,0.1892,0.1893,0.1916,0,0,0,0,0,0.1979,0.1972,0.1964,0.1954,0.1951,0.1946,0.1941,0.1939,0.1932,0.1929,0.1923,0.1915,0.1905,0.1899,0.189,0.1876,0.1873,0.1869,0.1868,0.1867,0.1866,0.1856,0.1854,0.1876,0.1876,0.1876,0,0,0.1976,0.197,0.1965,0.1954,0.1948,0.194,0.1943,0.1934,0.1927,0.1927,0.1914,0.191,0.1901,0.1887,0.188,0.1882,0.1859,0.1866,0.1865,0.1864,0.1855,0.1853,0.1851,0.1876,0.1876,0.1876,0,0,0.1964,0.196,0.195,0.1945,0.1936,0.1933,0.1931,0.1922,0.1919,0.1907,0.1906,0.1897,0.1881,0.1875,0.1869,0.1854,0.1853,0.1851,0.1844,0.1836,0.1834,0.1832,0.1826,0.1824,0.185,0.185,0.185,0,0.196,0.1948,0.1945,0.1936,0.193,0.193,0.192,0.1914,0.1903,0.1899,0.1902,0.1881,0.1875,0.1859,0.1855,0.1851,0.1848,0.1852,0.1834,0.1833,0.1831,0.1825,0.1823,0.185,0.185,0.185,0.185,0,0.1943,0.1934,0.1927,0.1917,0.1911,0.1901,0.1896,0.189,0.1889,0.1884,0.1871,0.1864,0.1853,0.1849,0.1847,0.1832,0.1834,0.1835,0.184,0.1829,0.1823,0.1821,0.1849,0.1849,0.1849,0.1849,0,0,0.193,0.1918,0.1915,0.191,0.1901,0.1893,0.1883,0.1873,0.1867,0.1859,0.185,0.1836,0.1837,0.1831,0.1829,0.1821,0.1808,0.1824,0.1823,0.182,0.1789,0.1787,0.1785,0.1808,0.1807,0.1807,0.179,0,0.1916,0.1899,0.1896,0.188,0.1871,0.1871,0.1861,0.1854,0.185,0.1841,0.1836,0.1826,0.1829,0.1825,0.1817,0.1811,0.1802,0.1813,0.1798,0.1797,0.1799,0.1782,0.178,0.1764,0.1788,0.1787,0.1787,0,0.1899,0.1891,0.1874,0.1865,0.1861,0.1853,0.1843,0.1835,0.1826,0.1823,0.1816,0.1814,0.1802,0.1808,0.179,0.1798,0.1792,0.1788,0.1787,0.1785,0.1791,0.1778,0.1759,0.1756,0.1783,0.1784,0.1784,0,0.1889,0.1874,0.1862,0.1858,0.1847,0.1842,0.1837,0.1828,0.1822,0.1813,0.1808,0.1798,0.1791,0.1783,0.1778,0.1782,0.176,0.1766,0.1757,0.1757,0.1752,0.1752,0.173,0.1749,0.1749,0.1749,0.1749,0,0.1874,0.1864,0.1858,0.185,0.1838,0.1835,0.1823,0.1818,0.181,0.1801,0.1799,0.179,0.1785,0.1775,0.1771,0.1756,0.1754,0.1751,0.1749,0.175,0.175,0.1745,0.1746,0.1749,0.1749,0.1749,0.1749,0,0.1862,0.1858,0.1844,0.1835,0.1833,0.1824,0.1816,0.1808,0.1803,0.1791,0.1788,0.1781,0.1769,0.1763,0.1749,0.1746,0.1729,0.1729,0.1732,0.1732,0.1722,0.1723,0.1696,0.1692,0.1714,0.1714,0.1714,0,0.1852,0.1844,0.1834,0.1828,0.1823,0.1814,0.1807,0.1803,0.1796,0.1785,0.1778,0.1766,0.1756,0.1737,0.1729,0.1718,0.1717,0.1708,0.1715,0.1716,0.1715,0.1716,0.1714,0.1707,0.1707,0.1706,0.1706,0,0.1835,0.1833,0.1824,0.1814,0.1807,0.1798,0.179,0.1785,0.1779,0.1771,0.1759,0.1752,0.1736,0.1724,0.1712,0.1706,0.1704,0.1704,0.1701,0.1702,0.1703,0.1701,0.1728,0.1705,0.1705,0.1705,0.1705,0.1705,0.1823,0.1816,0.1807,0.1797,0.179,0.1783,0.1774,0.1769,0.1759,0.1746,0.1744,0.1731,0.1721,0.1705,0.1698,0.1687,0.1689,0.1685,0.1684,0.1683,0.1681,0.1706,0.1685,0.1685,0.1685,0.1685,0.1685,0,0.1805,0.18,0.179,0.1779,0.177,0.1771,0.1762,0.1754,0.1743,0.1734,0.1724,0.171,0.1698,0.1689,0.1677,0.1669,0.1668,0.1666,0.1666,0.1664,0.1681,0.1684,0.1667,0.1667,0.1667,0.1667,0.1667,0.1667,0.1795,0.1782,0.1779,0.1762,0.1756,0.1744,0.1738,0.173,0.1723,0.1707,0.1697,0.1692,0.1683,0.167,0.1658,0.1656,0.1651,0.1648,0.1646,0.1661,0.1663,0.1665,0.1668,0.1647,0.1647,0.1629,0.1629,0.1629]},{"header":{"parameterUnit":"m.s-1","parameterCategory":1,"la1":30.2991,"la2":30.254,"lo1":-89.0895,"lo2":-89.0444,"dy":0.0017,"dx":0.0017,"nx":28,"ny":28,"refTime":"2025-07-25T03:00:00:Z","depth":0,"parameterNumber":3,"parameterNumberName":"V-component_of_WINDS"},"data":[0,0,0,0,0,0,0,0,0,0,0,0,0,0,0,0,0,0,0,0,0,0,0,0,0,0,0,0,0,0,0,0,0,0,0,0,0,0,0,0,0,0,0,0,0,0,0,0,0,0,0,0,0,0,0,0,0,0,5.9104,5.9106,0,5.9276,5.9278,5.9279,5.9231,5.9228,5.9224,5.9221,5.9392,5.94,5.9407,0,0,0,0,0,0,0,0,0,0,0,0,0,5.8727,5.8734,5.9104,5.9106,5.9108,5.9275,5.9278,5.928,5.9232,5.9228,5.9223,5.9219,5.9389,5.9399,5.9408,0,0,0,0,0,0,0,0,0,0,0,0,0,5.8894,5.8737,5.9103,5.9104,5.9106,5.9275,5.9278,5.9281,5.9233,5.9227,5.9222,5.9217,5.9386,5.9398,5.9409,5.9586,0,0,5.9445,5.945,0,0,0,0,0,0,0,0,5.8884,5.8908,5.9102,5.9104,5.9107,5.9227,5.9208,5.9383,5.9234,5.9184,5.9221,5.9215,5.9341,5.9356,5.94,5.9594,5.9601,5.9446,5.9453,5.9458,5.9461,0,0,0,0,0,0,0,5.8873,5.89,5.9171,5.9105,5.9108,5.9094,5.9112,5.9241,5.929,5.9188,5.9185,5.9207,5.9341,5.9388,5.9403,5.9604,5.9446,5.9456,5.9463,5.9468,5.9949,5.9954,0,0,0,0,0,0,5.886,5.8891,5.9166,5.9177,5.8981,5.9105,5.9125,5.9193,5.9288,5.9298,5.9211,5.9204,5.9371,5.939,5.9409,5.962,5.9458,5.9469,5.9476,5.9943,5.995,5.9956,0,0,0,0,0,0,5.8853,5.8885,5.9159,5.9033,5.9067,5.9117,5.9194,5.92,5.9247,5.9305,5.9313,5.9251,5.9368,5.9393,5.9542,5.9625,5.9474,5.9485,5.9936,5.9945,5.9953,6.0045,0,0,0,0,0,0,5.8842,5.8883,5.8952,5.9035,5.9074,5.9292,5.9199,5.9207,5.9268,5.926,5.9345,5.9354,5.9365,5.9525,5.9554,5.9639,5.9494,5.9929,5.994,5.995,6.0035,6.0056,6.0074,0,0,0,0,0,5.8829,5.8971,5.8956,5.899,5.9162,5.9297,5.9318,5.9331,5.9275,5.9344,5.9381,5.9351,5.9612,5.9541,5.9573,5.9663,5.9924,5.9937,5.995,6.0026,6.0052,6.0074,0,0,0,0,0,0,5.8896,5.8982,5.8966,5.914,5.9212,5.9288,5.9376,5.9358,5.9445,5.9434,5.9444,5.9463,5.9616,5.9654,5.9573,5.9837,5.9759,5.9779,5.9807,5.9831,5.9851,5.9838,5.9504,0,0,0,0,0,5.8931,5.9036,5.9104,5.9251,5.9288,5.9326,5.9385,5.9388,5.9461,5.9491,5.9539,5.961,5.9707,5.9772,5.9865,6.004,6.0056,6.0118,6.0137,6.0153,6.017,6.0262,6.029,5.9999,5.9999,5.9998,0,0,5.9005,5.9065,5.913,5.9266,5.9321,5.9427,5.9351,5.9466,5.9544,5.9508,5.9652,5.969,5.9769,5.9932,6.0006,5.9968,6.0254,6.0169,6.0182,6.019,6.0278,6.0306,6.033,6.0007,6.0006,6.0004,0,0,5.9193,5.925,5.9377,5.9434,5.9519,5.9543,5.9574,5.9653,5.9677,5.9822,5.9796,5.9887,6.0056,6.0113,6.0164,6.0371,6.0346,6.0401,6.0503,6.0593,6.0616,6.0636,6.0707,6.0733,6.0418,6.0418,6.0418,0,5.9273,5.9433,5.9444,5.9561,5.962,5.9594,5.9721,5.9775,5.9886,5.9926,5.9883,6.0093,6.0145,6.0319,6.0369,6.0413,6.0445,6.0391,6.0612,6.0632,6.0651,6.0719,6.0747,6.0424,6.0423,6.0423,6.0422,0,5.9526,5.9636,5.9728,5.9837,5.9907,6.0028,6.0056,6.0125,6.0121,6.0149,6.0295,6.0356,6.046,6.0502,6.0499,6.0675,6.0649,6.0609,6.0531,6.0685,6.0749,6.0775,6.0433,6.0431,6.0429,6.0427,0,0,5.9761,5.9874,5.9907,5.9955,6.0046,6.0131,6.025,6.0353,6.041,6.0487,6.0585,6.0728,6.0691,6.0749,6.0752,6.0831,6.0988,6.0781,6.0783,6.0816,6.1182,6.1211,6.1241,6.0972,6.0977,6.0981,6.1175,0,5.9955,6.0167,6.0179,6.037,6.047,6.0445,6.0548,6.0614,6.0643,6.073,6.0761,6.0861,6.0806,6.084,6.0918,6.0953,6.1061,6.0939,6.1061,6.1065,6.1041,6.1275,6.1306,6.1486,6.12,6.1204,6.1208,0,6.021,6.0295,6.0496,6.0571,6.0613,6.0706,6.08,6.0885,6.0958,6.0973,6.1037,6.1028,6.1147,6.1066,6.1228,6.1144,6.1195,6.1219,6.1226,6.1237,6.1145,6.129,6.1544,6.157,6.1248,6.1244,6.1242,0,6.0359,6.0524,6.0665,6.0707,6.0798,6.0863,6.0904,6.0972,6.1032,6.1113,6.1152,6.1245,6.1296,6.1368,6.1384,6.1324,6.1546,6.1466,6.1559,6.1559,6.1606,6.1603,6.187,6.1642,6.1641,6.1641,6.164,0,6.0574,6.0697,6.0733,6.0819,6.0955,6.0968,6.1101,6.1137,6.1197,6.1288,6.1272,6.1357,6.1374,6.1462,6.1475,6.1606,6.163,6.1643,6.1645,6.1644,6.1642,6.1676,6.1663,6.1648,6.1646,6.1645,6.1644,0,6.0764,6.0793,6.0944,6.1018,6.1039,6.1136,6.1198,6.1279,6.1305,6.142,6.1448,6.1488,6.1591,6.1614,6.1736,6.1744,6.1899,6.1889,6.1875,6.1874,6.1965,6.1955,6.2262,6.2302,6.2049,6.2051,6.2053,0,6.0898,6.0992,6.1076,6.1136,6.118,6.1278,6.1339,6.1353,6.1417,6.1506,6.1576,6.1677,6.1758,6.1923,6.1962,6.2054,6.2045,6.2146,6.2059,6.2054,6.2044,6.2038,6.2046,6.2162,6.2165,6.2167,6.2169,0,6.1133,6.1142,6.1232,6.1327,6.14,6.1475,6.1546,6.1596,6.162,6.1692,6.1797,6.186,6.1984,6.2084,6.2176,6.2215,6.2196,6.2196,6.2222,6.2222,6.2209,6.2215,6.1918,6.2189,6.2187,6.2186,6.2184,6.2184,6.1298,6.138,6.1451,6.155,6.1605,6.1672,6.1751,6.1787,6.1875,6.1978,6.1981,6.2095,6.2162,6.2284,6.2329,6.2416,6.2385,6.2423,6.2432,6.2441,6.2449,6.2196,6.2433,6.2433,6.2432,6.2432,6.2431,0,6.153,6.1575,6.1666,6.1766,6.1844,6.182,6.1897,6.1963,6.2064,6.2129,6.2209,6.2328,6.2424,6.247,6.2564,6.2625,6.2618,6.2649,6.2644,6.2652,6.2472,6.244,6.2653,6.2653,6.2653,6.2652,6.2652,6.2652,6.1661,6.1796,6.1814,6.1975,6.2018,6.213,6.2176,6.2236,6.2288,6.2422,6.2502,6.2531,6.2588,6.2685,6.2771,6.2782,6.2816,6.2851,6.2857,6.2688,6.2666,6.2644,6.2613,6.2859,6.2859,6.303,6.3032,6.3033]}]]